Vertical_Velocity
-2 2 0 1 -3 3 1 -1 -5 -2 -1 -3 -5 1 -3 -2 7 -4 -0 -2 -6 2 1 -1 2 0 -2 -1 4 6 -2 -2 -1 -1 7 1 2 -5 -3 2 0 -2 3 2 -1
2 -1 -0 -2 -1 -3 -1 -0 -2 -1 -4 -2 -1 -2 -4 -1 1 -5 -0 -4 -2 1 -1 5 -2 -0 4 -1 -3 -0 4 3 -7 -1 3 7 0 -1 -5 -1 -0 1 4 0 2
1 -1 1 1 -1 -0 -2 5 -1 -6 1 -3 -1 -0 -2 -0 -1 -3 -1 0 -0 -1 -0 -3 0 1 -2 2 2 5 -2 10 -2 -4 -5 -5 -3 -2 4 -7 2 5 -2 -0 0
0 -5 1 -3 -0 -1 -5 1 -0 -4 -2 -3 -0 0 -2 7 2 -2 -1 -3 -4 1 0 -1 4 1 1 1 -0 -6 3 4 6 -5 -4 -2 -3 -2 -6 2 5 1 -2 -5 -3
-3 1 4 -1 1 1 -0 2 2 -4 2 -4 -3 -1 -1 6 9 -4 -2 -1 -2 1 -0 3 -1 4 1 -1 1 -6 2 3 4 -6 -1 1 1 -2 -17 4 -0 4 3 0 -3
-1 -3 4 -1 -2 -5 -3 -0 -2 -6 -4 -7 -5 2 -6 3 -4 2 -3 -2 -2 -1 3 3 3 -1 -2 0 0 0 -1 -2 4 -2 0 -1 -0 9 0 4 -2 -4 -1 0 -2
-2 -3 -0 -2 -4 -0 1 -1 1 -1 -2 -7 -9 -3 -8 6 -4 -0 1 4 -6 -2 -2 3 4 -0 -3 -2 -3 2 -8 1 -4 2 0 2 -7 -12 5 -5 -1 -3 -1 -1 -3
1 -6 -1 -3 -1 -5 1 -7 -2 0 -1 -3 -5 -7 -15 -3 -2 -1 -6 9 6 -8 -5 5 3 2 -0 4 -1 -5 0 -1 13 -4 9 5 -11 5 -10 0 -1 -2 -1 -2 -2
1 4 -8 -4 -2 -5 -4 -2 0 3 -2 0 -5 0 -16 -3 4 -2 -4 -5 3 -5 3 -2 4 4 -7 -1 6 2 -2 11 -2 5 3 3 -5 -1 -2 2 -2 -2 -5 -4 -2
-3 -0 -1 -0 1 1 -0 -6 0 -9 -0 -2 0 -3 -0 -1 -7 -13 1 5 -5 1 -0 3 -1 -1 -2 7 -12 5 14 -1 -8 7 -4 5 -4 -5 -1 5 2 -3 -4 -4 -5
-0 3 1 -2 -8 -6 1 -6 -4 -6 0 1 3 -2 -4 1 -11 -2 -16 -1 -3 1 2 -5 6 -11 -2 4 2 3 2 1 -4 -4 2 -1 1 -2 -7 -3 -4 -3 2 -2 -4
5 3 -4 -1 -5 1 -10 2 -4 -1 -15 11 -1 -7 4 -7 -13 9 7 -13 4 -4 3 10 -11 1 8 -10 -5 1 2 -9 -3 -0 1 2 -7 -1 -9 -7 0 -4 -5 -1 4
12 12 1 -4 -7 3 -1 -2 0 -2 -1 -15 3 1 -3 1 6 -3 3 3 -0 -7 5 -5 3 -2 1 5 6 -8 -4 -3 4 -4 -9 -4 -24 -0 16 -5 -3 -2 3 6 6
6 8 4 -2 2 -2 7 2 -6 -1 -8 -1 -5 5 -3 2 2 8 -9 -2 1 2 -1 -2 4 -1 -5 -2 8 5 7 4 -1 3 -2 18 -25 -7 3 3 -7 10 1 2 1
-2 12 -8 4 4 3 -1 -8 3 3 2 -1 -4 -5 -3 8 4 1 1 -2 -0 -0 3 5 2 -5 2 -6 8 -28 -1 10 3 3 10 -4 22 -17 -6 -3 19 -10 -1 2 1
-5 -6 -9 -3 -1 1 3 -3 -0 -1 -4 -0 -1 -1 -1 -1 3 1 -4 -3 -2 -1 1 -5 5 1 -4 -4 -3 11 -8 -2 1 2 14 -1 14 -32 13 13 2 -5 -2 2 4
-13 -7 -7 -7 -7 -7 -4 -2 3 0 -5 1 -1 -3 -1 1 -1 -6 -3 1 2 1 3 6 1 3 -3 -4 2 2 5 0 10 16 -15 6 13 -21 4 -9 -1 -1 -0 -4 -3
0 -3 4 -4 -4 2 1 2 2 -1 -1 -2 -2 4 -2 -4 -2 -1 -4 1 4 -1 -0 1 -1 -2 1 4 10 11 5 -5 -3 -0 -12 15 -4 16 -3 -2 -4 -12 -5 -6 -9
-0 -6 -1 -4 -1 1 -2 2 1 1 -5 -5 -3 -1 3 4 -3 -2 -4 -6 -4 -0 4 -5 3 -12 1 1 4 10 -2 -6 19 -7 21 -15 10 0 1 -4 -7 -3 -2 -2 -5
0 1 5 -1 -5 -1 1 -5 1 -2 -0 -4 -4 -4 -3 -7 -2 6 2 5 11 6 -7 1 -9 4 0 -12 -1 6 20 9 3 3 1 -9 -5 -9 -6 -2 -4 -0 -1 -6 -4
3 -3 -4 3 -1 -0 -4 -1 -0 0 2 3 -7 -5 -5 -4 -3 -4 -8 -5 -10 9 11 8 21 -31 3 4 -12 -7 14 9 7 6 1 1 -12 -8 4 3 2 -1 -1 -3 -8
5 -4 -5 -10 4 4 -3 -4 -4 4 -5 -4 2 -3 -6 -2 -8 1 -5 6 7 14 6 5 6 -6 -20 -12 18 8 -17 19 7 -5 3 5 -2 -2 -3 1 -1 6 -4 -4 -4
8 -7 0 -4 -0 1 -3 0 0 3 -1 -5 -3 -1 1 -3 6 -8 -1 -1 10 -4 -5 -8 -14 4 -20 -4 -11 6 -9 12 13 16 -7 13 2 1 2 3 4 -1 -0 -4 2
-1 -1 4 5 -2 -0 -0 -4 1 -5 1 -3 -6 1 3 1 3 -8 -9 -3 10 -1 5 29 -11 3 -6 -12 22 1 -0 -2 2 2 -7 -7 -15 -1 -4 -6 6 -3 -3 2 -1
-1 -1 -3 -4 0 1 -3 1 2 6 1 -3 -8 -1 7 -4 -1 -10 5 -5 5 -4 -5 4 2 15 -6 -4 2 -1 1 -3 7 -2 21 -28 10 -14 6 -17 -5 5 -2 -3 -1
2 -6 -1 3 -5 2 -5 -6 -4 -4 0 1 -3 5 -2 -11 4 -10 2 6 -5 -10 -0 12 -6 4 -15 -4 4 -2 -4 -9 -3 -8 0 2 -14 -0 -6 -1 2 14 3 3 7
1 1 5 -2 -1 -2 -3 1 2 -2 2 1 1 -6 6 -2 1 -2 -1 -2 -22 -8 -2 4 -2 8 -29 8 6 20 -38 5 -7 -4 3 1 -20 4 9 -6 1 -2 -6 3 6
Height
3147 3146 3146 3146 3146 3146 3145 3145 3144 3143 3141 3141 3139 3138 3137 3136 3137 3135 3133 3133 3131 3130 3131 3130 3130 3131 3131 3130 3131 3130 3132 3130 3130 3131 3132 3131 3131 3129 3130 3130 3129 3129 3130 3131 3132
3142 3142 3142 3141 3142 3141 3141 3141 3140 3139 3138 3136 3135 3134 3133 3131 3131 3130 3129 3128 3126 3126 3128 3128 3128 3128 3129 3128 3128 3128 3127 3126 3127 3127 3128 3127 3127 3126 3128 3129 3129 3128 3127 3127 3129
3136 3136 3136 3137 3137 3137 3136 3137 3135 3135 3134 3133 3131 3130 3129 3127 3126 3126 3125 3125 3125 3125 3125 3125 3125 3125 3125 3125 3126 3125 3122 3123 3121 3121 3121 3122 3123 3122 3123 3125 3126 3126 3124 3124 3126
3130 3130 3130 3131 3131 3131 3132 3130 3130 3129 3127 3127 3127 3126 3125 3124 3128 3123 3122 3122 3121 3120 3121 3120 3120 3121 3122 3122 3121 3119 3119 3117 3117 3115 3116 3117 3117 3116 3117 3119 3121 3121 3122 3122 3123
3125 3125 3124 3125 3124 3124 3124 3124 3124 3123 3122 3122 3122 3122 3122 3119 3121 3118 3117 3115 3115 3115 3115 3115 3116 3116 3116 3116 3116 3114 3115 3113 3111 3110 3111 3111 3110 3110 3111 3114 3114 3114 3115 3116 3118
3118 3118 3118 3117 3118 3119 3118 3116 3118 3118 3116 3115 3117 3117 3117 3115 3114 3113 3113 3112 3110 3110 3111 3111 3112 3111 3111 3111 3111 3111 3109 3107 3106 3105 3104 3104 3105 3107 3107 3106 3106 3107 3109 3110 3110
3110 3111 3112 3112 3113 3113 3112 3110 3111 3111 3110 3111 3111 3111 3112 3111 3110 3107 3105 3106 3106 3104 3105 3105 3106 3106 3106 3106 3105 3104 3103 3103 3101 3100 3100 3100 3100 3098 3100 3099 3099 3100 3101 3101 3103
3102 3103 3104 3106 3107 3108 3106 3105 3104 3104 3104 3104 3106 3106 3106 3105 3103 3102 3099 3099 3099 3099 3099 3099 3100 3101 3101 3101 3099 3099 3100 3098 3098 3095 3096 3096 3095 3098 3092 3093 3093 3093 3094 3094 3095
3093 3095 3096 3098 3101 3101 3099 3097 3097 3096 3097 3098 3100 3100 3101 3099 3098 3098 3098 3095 3093 3094 3095 3095 3095 3096 3096 3098 3098 3097 3093 3095 3095 3094 3092 3091 3090 3092 3087 3087 3086 3087 3087 3087 3088
3083 3084 3088 3090 3093 3095 3092 3092 3091 3091 3092 3092 3091 3094 3093 3092 3092 3092 3091 3092 3091 3090 3090 3091 3090 3092 3091 3093 3090 3091 3089 3090 3089 3090 3085 3086 3083 3084 3084 3082 3079 3080 3080 3080 3081
3073 3075 3079 3081 3082 3086 3087 3085 3088 3083 3086 3085 3085 3083 3084 3084 3087 3087 3084 3085 3085 3087 3086 3084 3084 3082 3087 3089 3088 3086 3086 3084 3084 3084 3079 3076 3074 3075 3075 3073 3072 3072 3072 3073 3073
3063 3066 3068 3071 3075 3076 3079 3077 3077 3077 3076 3077 3075 3072 3074 3072 3074 3079 3075 3077 3079 3078 3083 3080 3074 3078 3077 3076 3080 3081 3079 3078 3078 3079 3073 3068 3059 3066 3066 3062 3064 3064 3064 3064 3066
3053 3055 3057 3062 3065 3068 3067 3070 3069 3070 3069 3070 3066 3063 3065 3065 3063 3067 3067 3065 3067 3071 3073 3071 3071 3071 3070 3070 3068 3068 3072 3074 3072 3073 3068 3063 3045 3055 3054 3054 3054 3054 3055 3056 3056
3043 3045 3048 3054 3060 3059 3059 3060 3061 3061 3063 3060 3061 3060 3061 3060 3060 3057 3056 3062 3060 3060 3065 3063 3062 3061 3064 3063 3068 3058 3063 3063 3064 3066 3060 3064 3040 3049 3050 3050 3049 3046 3042 3045 3046
3035 3037 3041 3045 3048 3052 3053 3054 3054 3057 3061 3058 3056 3057 3057 3059 3055 3053 3054 3054 3055 3056 3057 3056 3053 3054 3055 3057 3061 3047 3061 3058 3056 3057 3054 3048 3054 3036 3040 3043 3042 3038 3038 3038 3040
3028 3031 3037 3040 3043 3045 3046 3048 3052 3058 3051 3050 3050 3052 3054 3055 3052 3049 3052 3051 3050 3049 3049 3047 3049 3047 3048 3049 3052 3052 3049 3052 3051 3052 3043 3027 3040 3023 3032 3030 3030 3029 3029 3029 3030
3020 3025 3029 3033 3038 3041 3042 3047 3051 3051 3045 3046 3048 3049 3053 3050 3049 3048 3051 3052 3050 3046 3046 3045 3045 3043 3042 3043 3048 3046 3046 3045 3039 3035 3023 3028 3029 3019 3017 3022 3025 3024 3023 3023 3025
3015 3020 3022 3026 3031 3036 3037 3044 3044 3039 3043 3043 3046 3047 3047 3045 3045 3044 3049 3051 3048 3043 3040 3040 3041 3041 3041 3041 3040 3037 3038 3035 3024 3018 3018 3022 3015 3014 3010 3011 3015 3019 3019 3017 3017
3010 3015 3017 3020 3026 3031 3034 3037 3035 3035 3039 3041 3044 3044 3044 3044 3043 3041 3040 3042 3046 3044 3039 3037 3035 3032 3034 3036 3038 3033 3028 3026 3027 3023 3017 3015 3013 3011 3008 3005 3010 3012 3013 3012 3009
3007 3011 3012 3016 3021 3026 3028 3031 3030 3032 3034 3036 3041 3038 3036 3040 3041 3043 3039 3038 3042 3038 3033 3034 3033 3031 3028 3026 3031 3029 3026 3022 3019 3014 3004 3000 2998 2999 3003 3006 3007 3010 3007 3007 3005
3002 3005 3009 3014 3016 3020 3021 3026 3027 3026 3030 3031 3031 3031 3034 3036 3037 3037 3033 3034 3036 3038 3034 3028 3027 3023 3027 3023 3022 3020 3017 3013 3012 3006 3000 2997 2994 2996 2999 3002 3004 3003 2999 3000 3001
2998 2999 3004 3011 3017 3013 3014 3017 3023 3022 3022 3026 3026 3023 3028 3031 3030 3032 3031 3029 3028 3029 3029 3026 3021 3020 3019 3018 3015 3017 3012 3010 3009 3005 3002 2999 2994 2994 2997 2998 2999 2997 2996 2995 2996
2996 2993 3002 3003 3011 3009 3007 3013 3017 3020 3019 3020 3021 3020 3022 3026 3024 3021 3024 3026 3021 3020 3021 3020 3014 3009 3010 3009 3007 3005 3004 3003 3000 2998 2995 2993 2992 2991 2994 2994 2992 2992 2992 2991 2990
2991 2991 2998 2998 2997 3004 3008 3007 3012 3013 3014 3014 3014 3017 3014 3016 3016 3012 3015 3018 3011 3010 3013 3010 3002 3004 2999 2997 2999 2997 2995 2994 2994 2990 2990 2989 2988 2991 2990 2990 2990 2987 2988 2986 2984
2984 2983 2989 2994 2992 2998 3005 3004 3007 3009 3007 3008 3009 3010 3009 3009 3008 3007 3007 3007 3004 3000 3002 3000 2991 2993 2992 2992 2992 2991 2991 2990 2988 2985 2985 2981 2983 2983 2985 2985 2985 2984 2982 2981 2979
2979 2981 2986 2985 2992 2995 2998 2999 3002 3005 3003 3002 3003 3003 3002 3001 3004 2998 3002 3000 2998 2995 2993 2991 2985 2984 2982 2983 2983 2983 2983 2981 2979 2979 2976 2977 2974 2978 2978 2979 2978 2976 2974 2976 2974
2974 2979 2981 2981 2987 2990 2994 2995 2997 2996 2995 2996 2996 2996 2996 2994 2993 2991 2990 2990 2987 2985 2986 2985 2981 2976 2967 2971 2974 2972 2967 2970 2969 2969 2969 2968 2968 2970 2971 2970 2970 2969 2970 2971 2969